BLOCK DM-SL R/B, 28365

Orbit data source: Space-Track

BLOCK DM-SL R/B, 28365 is space debris in HEO originally from a launch on Tue, 29 Jun 2004 UTC launched from the Sea Launch (SEAL). Debris objects in space refer to the collection of defunct objects orbiting the Earth. Examples of debris include non-operational satellites, rocket bodies, and fragments generated from explosions, collisions, or faulty payload assembly.

Loading next visibility...
Identifier
28365, 2004-024B
Orbit
HEO
Last TLE update
15 hours ago
Origin
Manufacturer
RKKE
Mission
Spacecraft
Bus & Motor
BLOK DM2, 11D58M
Mass
~3,210 kg wet, 3,210 kg dry
Launch date (UTC)
2004-06-29 (21 years ago)
Launch vehicle
Unknown
Launch site
Sea Launch (SEAL)
Object type
Payload
Rocket body
Debris
Shape & HBR
Cyl, 6.3 m
Radar Cross Section
23.684 m², Large (>1 m²)

Expand to show TLE details & history

TLE from 15 hours ago
0 BLOCK DM-SL R/B
1 28365U 04024B   25183.62090067  .00000007  00000-0  29816-3 0  9999
2 28365   0.1382  45.4267 5968601 282.7086   9.3478  3.73386171286664
Epoch: 2025-07-02T14:54Z
TLE epoch observation values (Epoch: 2025-07-02T14:54:05.817Z)
Latitude
-0.07324°
Longitude
-133.06687°
Altitude
1,497.966 km
Speed
8.86 km/s
True Right ascension
00h 45m 25s
True Declination
0° 04' 22"
Sunlit
Object was in daylight at epoch
Visualization orbit readout
Latitude
0.14174°
Longitude
-3.59071°
Altitude
21,273.28 km
Speed
2.474 km/s
Apparent Right ascension
08h 56m 04s
Apparent Declination
-7° 20' 07"
Sunlit
Object is in daylight
Visualization observer readout
Local Sidereal Time
18:07:49
Azimuth
299.411° NW
Elevation
-40.293°
Doppler factor
1
Orbital elements
Apogee altitude
21,655.776 km
Perigee altitude
699.245 km
Semi-major axis
17,555.647 km
Eccentricity
0.59686
Inclination
0.1382°
RAAN
45.4267°
Arg. of periapsis
282.7086°
True anomaly
Unknown
Mean anomaly
9.3478°
Eccentric anomaly
Unknown
Mean motion
0.93308 °/min
Orbital period
385.82 mins
BSTAR
0.00029816
Loading maneuver chart data...
Loading SW <> Apogee altitude chart data...
Loading historical data...
Loading historical data...
Loading historical data...
Loading historical data...
Loading historical data...
Loading historical data...
Loading historical data...
Other satellites on launch #24 in the year 2004 (2004-06-29 UTC)

BLOCK DM-SL R/B Visibility forecast

Observer location: undefined°, undefined°

Span
Click to sort rows by Start time (UTC) header in descending order
Start Az.
Max El. time (UTC)
Max El. Az.
Max El.
End time (UTC)
End Az.
287 mins2025-07-03 16:51:09.207Z205.605° SW2025-07-03 17:32:09.207Z150.807° SSE25.722°2025-07-03 21:38:09.207Z117.146° SE
170 mins2025-07-04 02:07:09.207Z249.279° W2025-07-04 04:40:09.207Z214.077° SW17.006°2025-07-04 04:57:09.207Z176.804° S
|